This demonstration page uses our WeatherBlox Daily Observations layout. Learn more.

Left ArrowRight Arrow

44.8408, -93.29828

Hourly Observations for May 7, 2016

Temp ( °F °C ) Dew Point ( °F °C ) Humidity (%) Winds ( mph kmh ) Pressure ( in mb ) Visibility ( mi km ) Precip ( " mm )
12:53 am 00:53 Mostly Cloudy with Smoke 66 18.9 41 5 40 40 NNE 18 30 29.81 1010 4 6 0.00 0.00
1:23 am 01:23 Mostly Cloudy with Smoke 64 17.8 37 2.8 37 37 N 23 37 29.85 1011 2 3 0.00 0.00
1:53 am 01:53 Mostly Cloudy with Smoke 62 16.7 33 0.6 34 34 N 14 22 29.84 1011 2 3 0.00 0.00
2:53 am 02:53 Mostly Cloudy with Smoke 59 15 30 -1.1 33 33 NNE 18 30 29.87 1012 3 4 0.00 0.00
3:17 am 03:17 Cloudy with Smoke 59 15 30 -1.1 33 33 N 14 22 29.88 1012 3 5 0.00 0.00
3:53 am 03:53 Cloudy with Smoke 57 13.9 30 -1.1 36 36 N 14 22 29.90 1012 4 6 0.00 0.00
4:53 am 04:53 Mostly Cloudy with Smoke 56 13.3 30 -1.1 37 37 N 12 19 29.93 1013 5 8 0.00 0.00
5:14 am 05:14 Cloudy with Smoke 55 13 30 -1 38 38 N 12 19 29.97 1015 4 6 0.00 0.00
5:44 am 05:44 Cloudy with Smoke 54 12 30 -1 41 41 N 10 17 29.97 1015 2 3 0.00 0.00
5:53 am 05:53 Mostly Cloudy with Smoke 54 12.2 30 -1.1 40 40 N 8 13 29.95 1014 2 3 0.00 0.00
6:27 am 06:27 Cloudy with Smoke 53 11.7 31 -0.6 43 43 NNW 8 13 29.97 1015 2 3 0.00 0.00
6:49 am 06:49 Mostly Cloudy with Smoke 54 12 32 0 44 44 NNW 9 15 29.97 1015 2 2 0.00 0.00
6:53 am 06:53 Mostly Cloudy with Smoke 54 12.2 31 -0.6 42 42 NNW 8 13 29.97 1015 2 2 0.00 0.00
7:24 am 07:24 Mostly Cloudy with Smoke 55 12.8 32 0 42 42 N 10 17 29.97 1015 2 3 0.00 0.00
7:53 am 07:53 Mostly Cloudy with Smoke 56 13.3 32 0 40 40 N 12 19 29.98 1015 3 4 0.00 0.00
8:01 am 08:01 Mostly Cloudy with Smoke 56 13.3 32 0 40 40 N 13 20 30.00 1016 3 5 0.00 0.00
8:53 am 08:53 Mostly Cloudy 59 15 31 -0.6 35 35 NNW 12 19 29.98 1015 7 11 0.00 0.00
9:53 am 09:53 Cloudy 61 16.1 32 0 34 34 N 16 26 29.97 1015 10 16 0.00 0.00
10:53 am 10:53 Cloudy 63 17.2 32 0 31 31 N 15 24 29.95 1014 10 16 0.00 0.00
11:53 am 11:53 Cloudy 66 18.9 30 -1.1 26 26 NNW 14 22 29.94 1014 10 16 0.00 0.00
12:53 pm 12:53 Mostly Cloudy 69 20.6 23 -5 17 17 N 17 28 29.92 1013 10 16 0.00 0.00
1:53 pm 13:53 Mostly Cloudy 68 20 25 -3.9 20 20 N 16 26 29.93 1014 10 16 0.00 0.00
2:53 pm 14:53 Mostly Cloudy 68 20 26 -3.3 21 21 NNW 17 28 29.92 1013 10 16 0.00 0.00
3:53 pm 15:53 Partly Cloudy 68 20 28 -2.2 22 22 N 9 15 29.91 1013 10 16 0.00 0.00
4:53 pm 16:53 Partly Cloudy 69 20.6 27 -2.8 21 21 N 13 20 29.90 1013 10 16 0.00 0.00
5:53 pm 17:53 Partly Cloudy 68 20 25 -3.9 20 20 N 16 26 29.89 1012 10 16 0.00 0.00
6:53 pm 18:53 Partly Cloudy 67 19.4 26 -3.3 21 21 N 13 20 29.89 1012 10 16 0.00 0.00
7:53 pm 19:53 Mostly Cloudy 65 18.3 23 -5 20 20 N 14 22 29.90 1013 10 16 0.00 0.00
8:53 pm 20:53 Partly Cloudy 61 16.1 23 -5 23 23 N 8 13 29.91 1013 10 16 0.00 0.00
9:53 pm 21:53 Partly Cloudy 61 16.1 21 -6.1 21 21 VRB 3 6 29.92 1013 10 16 0.00 0.00
10:53 pm 22:53 Mostly Clear 56 13.3 27 -2.8 33 33 Calm 29.92 1013 10 16 0.00 0.00
11:53 pm 23:53 Mostly Clear 53 11.7 32 0 45 45 Calm 29.91 1013 10 16 0.00 0.00

Powered by AerisWeather